EW3791 Weather Reports


Display with metric or nautical units.
time (UTC)temp
F
wind
direction
speed
MPH
gust
MPH
rain 1hr
in
rain 24hr
in
rain mn
in
humidity
%
barometer
mb
20260905060054 83 179 3.0 8.0 0.00 0.02 0.00 87 1012.2
20260905054541 83 196 2.0 5.0 0.00 0.02 0.00 87 1012.3
20260905053104 83 181 3.0 5.0 0.00 0.02 0.00 87 1012.4
20260905051540 83 184 1.0 8.0 0.00 0.02 0.00 87 1012.3
20260905050006 83 176 3.0 8.0 0.00 0.02 0.00 86 1012.4
20260905044550 84 139 2.0 5.0 0.00 0.02 0.02 86 1012.3
20260905043018 84 147 1.0 6.0 0.00 0.02 0.02 85 1012.4
20260905041606 84 181 1.0 4.0 0.00 0.02 0.02 84 1012.5
20260905040031 84 184 3.0 6.0 0.00 0.02 0.02 84 1012.6
20260905034607 84 162 4.0 8.0 0.00 0.02 0.02 84 1012.6
20260905033049 84 147 3.0 7.0 0.00 0.02 0.02 83 1012.7
20260905031511 85 162 3.0 8.0 0.00 0.02 0.02 83 1012.8
20260905030055 85 213 1.0 9.0 0.00 0.02 0.02 82 1012.6
20260905024526 85 172 4.0 8.0 0.00 0.02 0.02 81 1012.5
20260905023106 86 177 1.0 8.0 0.00 0.02 0.02 80 1012.4
20260905021533 86 143 3.0 11.0 0.00 0.02 0.02 80 1012.2
20260905020010 86 128 4.0 8.0 0.00 0.02 0.02 80 1012.0
20260905014542 87 159 4.0 11.0 0.00 0.02 0.02 79 1012.0
20260905013009 87 156 5.0 8.0 0.00 0.02 0.02 79 1011.9
20260905011550 87 149 3.0 6.0 0.00 0.02 0.02 77 1011.6
20260905010019 88 127 4.0 9.0 0.00 0.02 0.02 76 1011.5
20260905004601 88 88 3.0 8.0 0.00 0.02 0.02 76 1011.5
20260905003030 88 157 2.0 9.0 0.00 0.02 0.02 75 1011.4
20260905001608 88 114 4.0 11.0 0.00 0.02 0.02 75 1011.1
20260905000040 89 103 5.0 10.0 0.00 0.02 0.02 74 1011.1
20260904234503 89 87 5.0 11.0 0.00 0.02 0.02 73 1011.0
20260904233042 90 112 6.0 11.0 0.00 0.02 0.02 72 1011.1
20260904231509 91 105 2.0 8.0 0.00 0.02 0.02 69 1011.0
20260904230107 91 60 3.0 7.0 0.00 0.02 0.02 70 1010.9
20260904224526 90 63 4.0 10.0 0.00 0.02 0.02 71 1010.9
20260904223002 90 91 3.0 7.0 0.00 0.02 0.02 72 1011.0
20260904221547 89 56 4.0 7.0 0.00 0.02 0.02 74 1011.1
20260904220016 88 45 4.0 8.0 0.00 0.02 0.02 75 1011.4
20260904214558 88 42 7.0 18.0 0.00 0.02 0.02 73 1011.2
20260904213030 90 48 6.0 11.0 0.00 0.02 0.02 71 1011.3
20260904211610 91 33 6.0 13.0 0.00 0.02 0.02 67 1011.6
20260904210047 93 219 1.0 10.0 0.00 0.02 0.02 61 1011.5
20260904204511 94 77 5.0 8.0 0.00 0.02 0.02 62 1011.8
20260904203055 93 175 2.0 6.0 0.00 0.02 0.02 61 1012.0
20260904201525 92 181 2.0 7.0 0.00 0.02 0.02 62 1012.2
20260904200003 93 87 3.0 6.0 0.00 0.02 0.02 62 1012.1
20260904194544 93 184 2.0 7.0 0.00 0.02 0.02 64 1012.3
20260904193009 91 150 2.0 5.0 0.00 0.02 0.02 67 1012.6
20260904191552 91 128 1.0 5.0 0.00 0.02 0.02 70 1012.8
20260904190025 89 191 3.0 7.0 0.00 0.02 0.02 74 1013.1
20260904184606 88 252 3.0 8.0 0.00 0.02 0.02 75 1013.5
20260904183025 87 203 4.0 8.0 0.00 0.02 0.02 79 1013.6
20260904181606 86 239 3.0 10.0 0.00 0.02 0.02 80 1013.8
20260904180034 85 172 9.0 17.0 0.00 0.02 0.02 77 1014.3
20260904174609 86 224 3.0 9.0 0.00 0.02 0.02 78 1014.1
20260904173038 87 162 4.0 8.0 0.00 0.02 0.02 78 1014.1
20260904171511 87 133 4.0 9.0 0.00 0.02 0.02 80 1014.3
20260904170057 86 141 4.0 11.0 0.00 0.02 0.02 80 1014.3
20260904164530 86 122 6.0 11.0 0.00 0.02 0.02 82 1014.1
20260904163113 86 130 7.0 12.0 0.00 0.02 0.02 85 1014.2
20260904161542 85 89 5.0 8.0 0.00 0.02 0.02 88 1014.2
20260904160019 84 91 3.0 8.0 0.00 0.02 0.02 89 1014.0
20260904154557 84 87 3.0 8.0 0.00 0.03 0.02 90 1014.3
20260904153023 83 79 1.0 5.0 0.00 0.03 0.02 90 1014.0
20260904151606 83 68 1.0 5.0 0.00 0.03 0.02 92 1013.7
20260904150042 83 53 2.0 5.0 0.00 0.03 0.02 91 1013.8
20260904144505 83 65 2.0 5.0 0.00 0.04 0.02 91 1013.6
20260904143047 83 74 2.0 5.0 0.00 0.04 0.02 91 1013.6
20260904141526 83 63 3.0 6.0 0.00 0.04 0.02 90 1013.5
20260904140108 83 55 2.0 7.0 0.00 0.04 0.02 90 1013.5
20260904134532 83 83 1.0 3.0 0.00 0.04 0.02 93 1013.4
20260904133007 81 90 0.0 0.0 0.00 0.04 0.02 93 1013.2
20260904131556 81 90 0.0 3.0 0.00 0.04 0.02 94 1013.2
20260904130045 81 71 0.0 3.0 0.00 0.04 0.02 94 1013.1
20260904124502 81 79 1.0 4.0 0.00 0.04 0.02 94 1013.0
20260904123043 80 83 0.0 4.0 0.00 0.04 0.02 94 1012.6
20260904121513 80 122 0.0 0.0 0.00 0.04 0.02 94 1012.4
20260904114528 80 125 0.0 0.0 0.00 0.04 0.02 94 1012.3
20260904113002 80 125 0.0 0.0 0.00 0.04 0.02 94 1012.3
20260904111542 80 125 0.0 0.0 0.00 0.04 0.02 93 1012.4
20260904110015 80 143 0.0 0.0 0.00 0.04 0.02 93 1012.4
20260904104555 80 217 0.0 0.0 0.00 0.04 0.02 93 1012.3
20260904103028 80 219 0.0 0.0 0.00 0.04 0.02 93 1012.2
20260904101507 80 219 0.0 0.0 0.00 0.04 0.02 93 1012.0
20260904100049 80 219 0.0 0.0 0.00 0.04 0.02 93 1011.8
20260904094517 81 219 0.0 0.0 0.00 0.04 0.02 93 1011.7
20260904093059 81 219 0.0 0.0 0.00 0.04 0.02 92 1011.6
20260904091547 81 219 0.0 0.0 0.01 0.04 0.02 92 1011.7
20260904090017 81 219 0.0 0.0 0.02 0.04 0.02 91 1011.8
20260904084558 81 219 0.0 3.0 0.02 0.04 0.02 91 1011.8
20260904083029 82 175 1.0 5.0 0.02 0.04 0.02 90 1011.8
20260904081506 82 196 1.0 4.0 0.01 0.03 0.01 89 1011.8
20260904080042 83 214 3.0 8.0 0.00 0.02 0.00 88 1011.8
20260904074515 83 192 3.0 6.0 0.00 0.02 0.00 88 1011.8
20260904073101 83 196 3.0 7.0 0.00 0.02 0.00 88 1011.8
20260904071530 83 197 2.0 7.0 0.00 0.02 0.00 88 1011.9
20260904070112 83 193 2.0 4.0 0.00 0.02 0.00 88 1012.0
20260904064545 83 210 2.0 8.0 0.00 0.02 0.00 88 1012.0
20260904063022 83 209 4.0 10.0 0.00 0.02 0.00 87 1012.0
20260904061603 83 163 2.0 6.0 0.00 0.02 0.00 88 1012.0